STARLINK-35373, 65792

Orbit data source: Space-Track

STARLINK-35373, 65792 is a payload satellite owned by SpaceX/Seattle (US) in SSO that was launched on Fri, 26 Sep 2025 UTC via an FALCON 9 launch vehicle from the Air Force Western Test Range (AFWTR). Payload-class satellites include a variety of spacecraft equipped with specific instruments for various scientific and technological missions. These include communications satellites like Starlink; space stations such as the ISS; scientific satellites like the Hubble; Earth observation satellites from companies like Planet Labs, Umbra, and HawkEye 360; GPS; miniature CubeSats for education and research; and military/defense satellites.

Loading next visibility...
Identifier
65792, 2025-218B
Orbit
SSO
Country
Flag of USUS
Related business
Manufacturer
SpaceX/Seattle
Mission
Operational Commercial Communications
Bus & Motor
STARLINK V2MO, Unknown motor
Mass
575 kg wet, ~530 kg dry
Launch date (UTC)
2025-09-26 (2 months ago)
Launch vehicle
FALCON 9
Launch site
Air Force Western Test Range (AFWTR)
Object type
Payload
Rocket body
Debris
Shape & HBR
Box + 2 Pan, 17.7 m
Radar Cross Section
36.964 m²

Expand to show TLE details & history
Last TLE update: 15 hours ago

TLE from 15 hours ago
0 STARLINK-35373
1 65792U 25218B   25340.60307460  .00012494  00000-0  86834-3 0  9999
2 65792  97.6026 201.2118 0002514  87.0991 273.0524 15.05660173 10965
Epoch: 2025-12-06T14:28Z
TLE epoch observation values (Epoch: 2025-12-06T14:28:25.645Z)
Latitude
0.00003°
Longitude
-91.5235°
Altitude
552.453 km
Speed
7.586 km/s
True Right ascension
13h 24m 50s
True Declination
0° 00' 00"
Sunlit
Object was in daylight at epoch
Visualization orbit readout
Latitude
Unknown
Longitude
Unknown
Altitude
Unknown
Speed
Unknown
Apparent Right ascension
Unknown
Apparent Declination
Unknown
Sunlit
N/A
Visualization observer readout
Local Sidereal Time
03:28:57
Azimuth
Unknown
Elevation
Unknown
Doppler factor
Unknown
Orbital elements
Apogee altitude
548.214 km
Perigee altitude
544.733 km
Semi-major axis
6,924.61 km
Eccentricity
0.00025
Inclination
97.6026°
RAAN
201.2118°
Arg. of periapsis
87.0991°
True anomaly
273.02363°
Mean anomaly
273.0524°
Eccentric anomaly
273.03802°
Mean motion
3.76661 °/min
Orbital period
95.58 mins
BSTAR
0.00086834
Loading maneuver chart data...
Computing Atmospheric mass density...
Loading historical data...
Loading historical data...
Loading historical data...
Loading historical data...
Loading historical data...
Loading historical data...
Loading historical data...

Documentation

Showing up to 5 results
|